Time,TemperatureF,DewpointF,PressureIn,WindDirection,WindDirectionDegrees,WindSpeedMPH,WindSpeedGustMPH,Humidity,HourlyPrecipIn,Conditions,Clouds,dailyrainin,SoftwareType,DateUTC
2013-11-09 02:53:00,30.0,17.0,33.11,SW,225,7.0,32.0,57,-99.99,,,0.00,,2013-11-09 07:53:00,
2013-11-09 03:02:00,30.0,17.0,33.11,SW,225,7.0,32.0,57,-99.99,,,0.00,,2013-11-09 08:02:00,
2013-11-09 03:42:00,30.0,23.0,33.11,SW,225,10.0,23.0,75,-99.99,,,0.00,,2013-11-09 08:42:00,
2013-11-09 03:52:00,30.0,23.0,33.11,SW,225,10.0,23.0,75,-99.99,,,0.00,,2013-11-09 08:52:00,
2013-11-09 04:02:00,30.0,23.0,33.11,SW,225,10.0,23.0,75,-99.99,,,0.00,,2013-11-09 09:02:00,
2013-11-09 04:43:00,30.0,23.0,33.11,WSW,247,5.0,27.0,75,-99.99,,,0.00,,2013-11-09 09:43:00,
2013-11-09 04:53:00,30.0,23.0,33.11,WSW,247,5.0,27.0,75,-99.99,,,0.00,,2013-11-09 09:53:00,
2013-11-09 05:03:00,30.0,23.0,33.11,WSW,247,5.0,27.0,75,-99.99,,,0.00,,2013-11-09 10:03:00,
2013-11-09 05:43:00,30.0,23.0,33.11,SSW,202,8.0,25.0,75,-99.99,,,0.00,,2013-11-09 10:43:00,
2013-11-09 05:52:00,30.0,23.0,33.11,SSW,202,8.0,25.0,75,-99.99,,,0.00,,2013-11-09 10:52:00,
2013-11-09 06:03:00,30.0,23.0,33.11,SSW,202,8.0,25.0,75,-99.99,,,0.00,,2013-11-09 11:03:00,
2013-11-09 06:43:00,30.0,23.0,33.11,SW,225,10.0,25.0,75,-99.99,,,0.00,,2013-11-09 11:43:00,
2013-11-09 06:52:00,30.0,23.0,33.11,SW,225,10.0,25.0,75,-99.99,,,0.00,,2013-11-09 11:52:00,
2013-11-09 07:02:00,30.0,23.0,33.11,SW,225,10.0,25.0,75,-99.99,,,0.00,,2013-11-09 12:02:00,
2013-11-09 07:42:00,31.0,24.0,33.11,SW,225,10.0,28.0,75,-99.99,,,0.00,,2013-11-09 12:42:00,
2013-11-09 07:52:00,31.0,24.0,33.11,SW,225,10.0,28.0,75,-99.99,,,0.00,,2013-11-09 12:52:00,
2013-11-09 08:02:00,31.0,24.0,33.11,SW,225,10.0,28.0,75,-99.99,,,0.00,,2013-11-09 13:02:00,
2013-11-09 08:52:00,31.0,24.0,33.11,West,270,11.0,28.0,75,-99.99,,,0.00,,2013-11-09 13:52:00,
2013-11-09 09:02:00,31.0,24.0,33.11,West,270,11.0,28.0,75,-99.99,,,0.00,,2013-11-09 14:02:00,
2013-11-09 09:42:00,31.0,24.0,33.11,WSW,247,18.0,27.0,75,-99.99,,,0.00,,2013-11-09 14:42:00,
2013-11-09 09:52:00,31.0,24.0,33.11,WSW,247,18.0,27.0,75,-99.99,,,0.00,,2013-11-09 14:52:00,
2013-11-09 10:02:00,31.0,24.0,33.11,WSW,247,18.0,27.0,75,-99.99,,,0.00,,2013-11-09 15:02:00,
2013-11-09 10:04:00,31.0,24.0,33.11,WSW,247,8.0,28.0,75,-99.99,,,0.00,,2013-11-09 15:04:00,
2013-11-09 10:54:00,31.0,24.0,33.11,WSW,247,8.0,28.0,75,-99.99,,,0.00,,2013-11-09 15:54:00,
2013-11-09 11:43:00,32.0,25.0,33.11,SW,225,6.0,23.0,75,-99.99,,,-99.99,,2013-11-09 16:43:00,
2013-11-09 11:53:00,32.0,25.0,33.11,SW,225,6.0,23.0,75,-99.99,,,-99.99,,2013-11-09 16:53:00,
2013-11-09 12:03:00,32.0,25.0,33.11,SW,225,6.0,23.0,75,-99.99,,,-99.99,,2013-11-09 17:03:00,
2013-11-09 12:44:00,32.0,25.0,33.10,WSW,247,12.0,25.0,75,-99.99,,,0.00,,2013-11-09 17:44:00,
2013-11-09 12:52:00,32.0,25.0,33.10,WSW,247,12.0,25.0,75,-99.99,,,0.00,,2013-11-09 17:52:00,
2013-11-09 13:02:00,32.0,25.0,33.10,WSW,247,12.0,25.0,75,-99.99,,,0.00,,2013-11-09 18:02:00,
2013-11-09 13:42:00,32.0,25.0,33.10,WSW,247,10.0,19.0,75,-99.99,,,0.00,,2013-11-09 18:42:00,
2013-11-09 13:52:00,32.0,25.0,33.10,WSW,247,10.0,19.0,75,-99.99,,,0.00,,2013-11-09 18:52:00,
2013-11-09 14:02:00,32.0,25.0,33.10,WSW,247,10.0,19.0,75,-99.99,,,0.00,,2013-11-09 19:02:00,
2013-11-09 14:42:00,32.0,25.0,33.10,WSW,247,15.0,22.0,75,-99.99,,,0.00,,2013-11-09 19:42:00,
2013-11-09 14:52:00,32.0,25.0,33.10,WSW,247,15.0,22.0,75,-99.99,,,0.00,,2013-11-09 19:52:00,
2013-11-09 15:02:00,32.0,25.0,33.10,WSW,247,15.0,22.0,75,-99.99,,,0.00,,2013-11-09 20:02:00,
2013-11-09 15:42:00,32.0,25.0,33.10,WSW,247,7.0,19.0,75,-99.99,,,0.00,,2013-11-09 20:42:00,
2013-11-09 15:52:00,32.0,25.0,33.10,WSW,247,7.0,19.0,75,-99.99,,,0.00,,2013-11-09 20:52:00,
2013-11-09 16:03:00,32.0,25.0,33.10,WSW,247,7.0,19.0,75,-99.99,,,0.00,,2013-11-09 21:03:00,
2013-11-09 16:04:00,32.0,25.0,33.11,SW,225,5.0,17.0,75,-99.99,,,0.00,,2013-11-09 21:04:00,
2013-11-09 16:44:00,32.0,25.0,33.11,SW,225,5.0,17.0,75,-99.99,,,0.00,,2013-11-09 21:44:00,
2013-11-09 16:54:00,32.0,25.0,33.11,SW,225,5.0,17.0,75,-99.99,,,0.00,,2013-11-09 21:54:00,
2013-11-09 17:43:00,32.0,25.0,33.11,SW,225,4.0,10.0,75,-99.99,,,0.00,,2013-11-09 22:43:00,
2013-11-09 17:54:00,32.0,25.0,33.11,SW,225,4.0,10.0,75,-99.99,,,0.00,,2013-11-09 22:54:00,
2013-11-09 18:02:00,32.0,25.0,33.11,SW,225,4.0,10.0,75,-99.99,,,0.00,,2013-11-09 23:02:00,
2013-11-09 18:42:00,32.0,25.0,33.11,SSW,202,4.0,8.0,75,-99.99,,,0.00,,2013-11-09 23:42:00,
2013-11-09 18:53:00,32.0,25.0,33.11,SSW,202,4.0,8.0,75,-99.99,,,0.00,,2013-11-09 23:53:00,
2013-11-09 19:02:00,32.0,25.0,33.11,SSW,202,4.0,8.0,75,-99.99,,,0.00,,2013-11-10 00:02:00,
2013-11-09 19:42:00,31.0,24.0,33.11,SW,225,3.0,8.0,75,-99.99,,,0.00,,2013-11-10 00:42:00,
2013-11-09 19:52:00,31.0,24.0,33.11,SW,225,3.0,8.0,75,-99.99,,,0.00,,2013-11-10 00:52:00,
2013-11-09 20:02:00,31.0,24.0,33.11,SW,225,3.0,8.0,75,-99.99,,,0.00,,2013-11-10 01:02:00,
2013-11-09 20:42:00,31.0,24.0,33.11,West,270,4.0,8.0,75,-99.99,,,0.00,,2013-11-10 01:42:00,
2013-11-09 20:52:00,31.0,24.0,33.11,West,270,4.0,8.0,75,-99.99,,,0.00,,2013-11-10 01:52:00,
2013-11-09 21:02:00,31.0,24.0,33.11,West,270,4.0,8.0,75,-99.99,,,0.00,,2013-11-10 02:02:00,
2013-11-09 21:42:00,31.0,24.0,33.11,SW,225,0.0,7.0,75,-99.99,,,0.00,,2013-11-10 02:42:00,
2013-11-09 21:52:00,31.0,24.0,33.11,SW,225,0.0,7.0,75,-99.99,,,0.00,,2013-11-10 02:52:00,
2013-11-09 22:03:00,31.0,24.0,33.11,SW,225,0.0,7.0,75,-99.99,,,0.00,,2013-11-10 03:03:00,
2013-11-09 22:54:00,30.0,23.0,33.11,SSW,202,0.0,4.0,75,-99.99,,,0.00,,2013-11-10 03:54:00,
2013-11-09 23:02:00,-999.0,-99.9,33.11,SSW,202,0.0,4.0,-999,-99.99,,,-99.99,,2013-11-10 04:02:00,
2013-11-09 23:43:00,30.0,23.0,33.11,SSW,202,3.0,5.0,75,-99.99,,,0.00,,2013-11-10 04:43:00,
2013-11-09 23:52:00,30.0,23.0,33.11,SSW,202,3.0,5.0,75,-99.99,,,0.00,,2013-11-10 04:52:00,